| time (UTC) | temp C | wind direction | speed KPH | gust KPH | rain 1hr cm | rain 24hr cm | rain mn cm | humidity % | barometer mb |
| 20260901105036 | 17 | 157 | 0.0 | 0.0 | 0.00 | 0.00 | 0.00 | 87 | 1021.5 |
| 20260901104036 | 17 | 157 | 0.0 | 0.0 | 0.00 | 0.00 | 0.00 | 88 | 1021.4 |
| 20260901103037 | 17 | 157 | 0.0 | 0.0 | 0.00 | 0.00 | 0.00 | 89 | 1021.2 |
| 20260901102037 | 17 | 157 | 0.0 | 0.0 | 0.00 | 0.00 | 0.00 | 89 | 1021.2 |
| 20260901101135 | 16 | 157 | 0.0 | 0.0 | 0.00 | 0.00 | 0.00 | 88 | 1021.0 |
| 20260901101038 | 16 | 157 | 0.0 | 0.0 | 0.00 | 0.00 | 0.00 | 89 | 1020.9 |
| 20260901100036 | 16 | 157 | 0.0 | 0.0 | 0.00 | 0.00 | 0.00 | 89 | 1020.8 |
| 20260901095051 | 16 | 157 | 0.0 | 0.0 | 0.00 | 0.00 | 0.00 | 89 | 1020.7 |
| 20260901093036 | 16 | 157 | 0.0 | 0.0 | 0.00 | 0.00 | 0.00 | 89 | 1021.1 |
| 20260901092935 | 16 | 157 | 0.0 | 0.0 | 0.00 | 0.00 | 0.00 | 88 | 1021.0 |
| 20260901091937 | 16 | 157 | 0.0 | 0.0 | 0.00 | 0.00 | 0.00 | 89 | 1020.9 |
| 20260901090936 | 16 | 157 | 0.0 | 0.0 | 0.00 | 0.00 | 0.00 | 89 | 1020.9 |
| 20260901085953 | 16 | 157 | 0.0 | 0.0 | 0.00 | 0.00 | 0.00 | 89 | 1021.0 |
| 20260901084938 | 16 | 157 | 0.0 | 0.0 | 0.00 | 0.00 | 0.00 | 89 | 1020.9 |
| 20260901083937 | 16 | 157 | 0.0 | 0.0 | 0.00 | 0.00 | 0.00 | 88 | 1020.8 |
| 20260901082938 | 16 | 157 | 0.0 | 0.0 | 0.00 | 0.00 | 0.00 | 89 | 1020.9 |
| 20260901081037 | 17 | 157 | 0.0 | 0.0 | 0.00 | 0.00 | 0.00 | 89 | 1020.8 |
| 20260901075136 | 16 | 157 | 0.0 | 0.0 | 0.00 | 0.00 | 0.00 | 88 | 1020.8 |
| 20260901074137 | 17 | 157 | 0.0 | 0.0 | 0.00 | 0.00 | 0.00 | 89 | 1020.9 |
| 20260901073151 | 17 | 157 | 0.0 | 0.0 | 0.00 | 0.00 | 0.00 | 89 | 1021.1 |
| 20260901072236 | 16 | 157 | 0.0 | 0.0 | 0.00 | 0.00 | 0.00 | 89 | 1021.2 |
| 20260901071239 | 16 | 157 | 0.0 | 0.0 | 0.00 | 0.00 | 0.00 | 88 | 1021.4 |
| 20260901070238 | 16 | 157 | 0.0 | 0.0 | 0.00 | 0.00 | 0.00 | 89 | 1021.6 |
| 20260901064335 | 17 | 157 | 0.0 | 0.0 | 0.00 | 0.00 | 0.00 | 89 | 1021.4 |
| 20260901063335 | 17 | 157 | 0.0 | 0.0 | 0.00 | 0.00 | 0.00 | 89 | 1021.6 |
| 20260901062339 | 16 | 157 | 0.0 | 0.0 | 0.00 | 0.00 | 0.00 | 88 | 1021.8 |
| 20260901061435 | 16 | 157 | 0.0 | 0.0 | 0.00 | 0.00 | 0.00 | 89 | 1021.6 |
| 20260901060438 | 16 | 157 | 0.0 | 0.0 | 0.00 | 0.00 | 0.00 | 89 | 1021.6 |
| 20260901054635 | 16 | 157 | 0.0 | 0.0 | 0.00 | 0.00 | 0.00 | 89 | 1021.6 |
| 20260901053637 | 16 | 157 | 0.0 | 0.0 | 0.00 | 0.00 | 0.00 | 89 | 1021.7 |
| 20260901052735 | 16 | 157 | 0.0 | 0.0 | 0.00 | 0.00 | 0.00 | 88 | 1021.9 |
| 20260901051736 | 16 | 157 | 0.0 | 0.0 | 0.00 | 0.00 | 0.00 | 89 | 1021.7 |
| 20260901050737 | 16 | 157 | 0.0 | 0.0 | 0.00 | 0.00 | 0.00 | 88 | 1021.7 |
| 20260901045736 | 16 | 157 | 0.0 | 0.0 | 0.00 | 0.00 | 0.00 | 89 | 1021.6 |
| 20260901044734 | 16 | 157 | 0.0 | 0.0 | 0.00 | 0.00 | 0.00 | 88 | 1021.7 |
| 20260901043737 | 17 | 157 | 0.0 | 0.0 | 0.00 | 0.00 | 0.00 | 88 | 1021.8 |
| 20260901042738 | 17 | 157 | 0.0 | 0.0 | 0.00 | 0.00 | 0.00 | 87 | 1021.6 |
| 20260901034924 | 17 | 157 | 0.0 | 0.0 | 0.00 | 0.00 | 0.00 | 86 | 1021.7 |
| 20260901033925 | 17 | 157 | 0.0 | 0.0 | 0.00 | 0.00 | 0.00 | 86 | 1021.5 |
| 20260901032923 | 18 | 157 | 0.0 | 0.0 | 0.00 | 0.00 | 0.00 | 85 | 1021.6 |
| 20260901032826 | 18 | 157 | 0.0 | 0.0 | 0.00 | 0.00 | 0.00 | 85 | 1021.8 |
| 20260901031823 | 18 | 157 | 0.0 | 0.0 | 0.00 | 0.00 | 0.00 | 85 | 1021.8 |
| 20260901030839 | 18 | 157 | 0.0 | 0.0 | 0.00 | 0.00 | 0.00 | 84 | 1021.8 |
| 20260901025838 | 18 | 157 | 0.0 | 3.2 | 0.00 | 0.00 | 0.00 | 85 | 1021.9 |
| 20260901024823 | 18 | 157 | 0.0 | 0.0 | 0.00 | 0.00 | 0.00 | 85 | 1022.0 |
| 20260901023841 | 18 | 157 | 0.0 | 0.0 | 0.00 | 0.00 | 0.00 | 85 | 1021.6 |
| 20260901022925 | 18 | 157 | 0.0 | 0.0 | 0.00 | 0.00 | 0.00 | 85 | 1021.7 |
| 20260901021923 | 18 | 225 | 0.0 | 0.0 | 0.00 | 0.00 | 0.00 | 86 | 1021.7 |
| 20260901020924 | 18 | 225 | 0.0 | 0.0 | 0.00 | 0.00 | 0.00 | 85 | 1021.6 |
| 20260901020841 | 18 | 225 | 0.0 | 0.0 | 0.00 | 0.00 | 0.00 | 86 | 1021.7 |
| 20260901015923 | 18 | 225 | 0.0 | 0.0 | 0.00 | 0.00 | 0.00 | 85 | 1021.7 |
| 20260901014924 | 18 | 225 | 0.0 | 1.6 | 0.00 | 0.00 | 0.00 | 85 | 1021.8 |
| 20260901013941 | 18 | 225 | 0.0 | 0.0 | 0.00 | 0.00 | 0.00 | 85 | 1021.6 |
| 20260901012926 | 18 | 225 | 0.0 | 0.0 | 0.00 | 0.00 | 0.00 | 85 | 1021.8 |
| 20260901012827 | 18 | 225 | 0.0 | 0.0 | 0.00 | 0.00 | 0.00 | 84 | 1021.8 |
| 20260901011826 | 18 | 225 | 0.0 | 0.0 | 0.00 | 0.00 | 0.00 | 84 | 1021.8 |
| 20260901011724 | 18 | 225 | 0.0 | 0.0 | 0.00 | 0.00 | 0.00 | 84 | 1021.8 |
| 20260901010725 | 18 | 225 | 0.0 | 0.0 | 0.00 | 0.00 | 0.00 | 83 | 1022.0 |
| 20260901005726 | 18 | 225 | 0.0 | 0.0 | 0.00 | 0.00 | 0.00 | 84 | 1022.0 |
| 20260901004823 | 18 | 225 | 0.0 | 0.0 | 0.00 | 0.00 | 0.00 | 83 | 1021.9 |
| 20260901003922 | 18 | 225 | 0.0 | 0.0 | 0.00 | 0.00 | 0.00 | 82 | 1021.9 |
| 20260901003822 | 18 | 225 | 0.0 | 0.0 | 0.00 | 0.00 | 0.00 | 83 | 1021.8 |
| 20260901002824 | 18 | 225 | 0.0 | 0.0 | 0.00 | 0.00 | 0.00 | 82 | 1021.8 |
| 20260901001822 | 18 | 225 | 0.0 | 0.0 | 0.00 | 0.00 | 0.00 | 81 | 1021.6 |
| 20260901001724 | 18 | 225 | 0.0 | 0.0 | 0.00 | 0.00 | 0.00 | 81 | 1021.7 |
| 20260901001622 | 18 | 225 | 0.0 | 0.0 | 0.00 | 0.00 | 0.00 | 80 | 1021.6 |
| 20260901000638 | 18 | 225 | 0.0 | 0.0 | 0.00 | 0.00 | 0.00 | 80 | 1021.6 |
| 20260831234739 | 19 | 225 | 0.0 | 0.0 | 0.00 | 0.00 | 0.00 | 78 | 1021.5 |
| 20260831232723 | 20 | 225 | 0.0 | 0.0 | 0.00 | 0.00 | 0.00 | 73 | 1021.5 |
| 20260831231624 | 20 | 225 | 0.0 | 0.0 | 0.00 | 0.00 | 0.00 | 71 | 1021.7 |
| 20260831230524 | 21 | 225 | 0.0 | 0.0 | 0.00 | 0.00 | 0.00 | 68 | 1021.8 |
| 20260831225523 | 21 | 225 | 0.0 | 0.0 | 0.00 | 0.00 | 0.00 | 67 | 1022.0 |
| 20260831224523 | 22 | 225 | 0.0 | 0.0 | 0.00 | 0.00 | 0.00 | 64 | 1022.0 |
| 20260831223524 | 23 | 225 | 0.0 | 0.0 | 0.00 | 0.00 | 0.00 | 62 | 1021.9 |
| 20260831222525 | 23 | 225 | 0.0 | 0.0 | 0.00 | 0.00 | 0.00 | 60 | 1022.0 |
| 20260831221524 | 23 | 157 | 1.6 | 3.2 | 0.00 | 0.00 | 0.00 | 58 | 1021.8 |
| 20260831220526 | 23 | 247 | 1.6 | 6.4 | 0.00 | 0.00 | 0.00 | 56 | 1021.6 |
| 20260831215524 | 24 | 247 | 4.8 | 8.0 | 0.00 | 0.00 | 0.00 | 56 | 1021.5 |
| 20260831214523 | 23 | 225 | 3.2 | 6.4 | 0.00 | 0.00 | 0.00 | 55 | 1021.6 |
| 20260831213524 | 24 | 225 | 3.2 | 4.8 | 0.00 | 0.00 | 0.00 | 54 | 1021.5 |
| 20260831211522 | 24 | 202 | 3.2 | 6.4 | 0.00 | 0.00 | 0.00 | 54 | 1021.4 |
| 20260831210525 | 24 | 314 | 0.0 | 4.8 | 0.00 | 0.00 | 0.00 | 54 | 1021.6 |
| 20260831205522 | 23 | 225 | 1.6 | 4.8 | 0.00 | 0.00 | 0.00 | 52 | 1021.6 |
| 20260831204522 | 24 | 270 | 3.2 | 6.4 | 0.00 | 0.00 | 0.00 | 51 | 1021.8 |
| 20260831203621 | 24 | 216 | 1.6 | 8.0 | 0.00 | 0.00 | 0.00 | 52 | 1021.7 |
| 20260831201624 | 24 | 262 | 4.8 | 11.3 | 0.00 | 0.00 | 0.00 | 52 | 1021.7 |
| 20260831200624 | 24 | 233 | 6.4 | 9.7 | 0.00 | 0.00 | 0.00 | 51 | 1021.7 |
| 20260831195722 | 24 | 294 | 6.4 | 9.7 | 0.00 | 0.00 | 0.00 | 52 | 1021.7 |
| 20260831195639 | 24 | 313 | 1.6 | 3.2 | 0.00 | 0.00 | 0.00 | 51 | 1021.8 |
| 20260831194624 | 24 | 247 | 3.2 | 6.4 | 0.00 | 0.00 | 0.00 | 49 | 1021.8 |
| 20260831193622 | 25 | 292 | 6.4 | 14.5 | 0.00 | 0.00 | 0.00 | 47 | 1021.8 |
| 20260831193524 | 25 | 328 | 4.8 | 16.1 | 0.00 | 0.00 | 0.00 | 47 | 1021.9 |
| 20260831192523 | 25 | 266 | 4.8 | 8.0 | 0.00 | 0.00 | 0.00 | 44 | 1022.1 |
| 20260831191622 | 26 | 160 | 0.0 | 1.6 | 0.00 | 0.00 | 0.00 | 44 | 1022.1 |
| 20260831190722 | 25 | 217 | 4.8 | 8.0 | 0.00 | 0.00 | 0.00 | 43 | 1022.2 |
| 20260831185723 | 25 | 225 | 3.2 | 8.0 | 0.00 | 0.00 | 0.00 | 44 | 1022.2 |
| 20260831184723 | 25 | 217 | 4.8 | 8.0 | 0.00 | 0.00 | 0.00 | 42 | 1022.4 |
| 20260831184624 | 25 | 214 | 4.8 | 6.4 | 0.00 | 0.00 | 0.00 | 43 | 1022.4 |
| 20260831183640 | 25 | 314 | 0.0 | 3.2 | 0.00 | 0.00 | 0.00 | 45 | 1022.6 |
| 20260831181723 | 23 | 251 | 3.2 | 8.0 | 0.00 | 0.00 | 0.00 | 46 | 1022.9 |
| 20260831180725 | 23 | 297 | 1.6 | 3.2 | 0.00 | 0.00 | 0.00 | 44 | 1022.8 |
| 20260831175722 | 23 | 279 | 4.8 | 8.0 | 0.00 | 0.00 | 0.00 | 47 | 1022.8 |
| 20260831174724 | 24 | 288 | 0.0 | 3.2 | 0.00 | 0.00 | 0.00 | 48 | 1023.0 |
| 20260831173723 | 24 | 264 | 1.6 | 6.4 | 0.00 | 0.00 | 0.00 | 47 | 1022.8 |
| 20260831172740 | 24 | 24 | 0.0 | 4.8 | 0.00 | 0.00 | 0.00 | 49 | 1023.0 |
| 20260831171723 | 24 | 270 | 3.2 | 6.4 | 0.00 | 0.00 | 0.00 | 46 | 1022.9 |
| 20260831170723 | 23 | 247 | 0.0 | 0.0 | 0.00 | 0.00 | 0.00 | 47 | 1023.2 |
| 20260831162938 | 23 | 146 | 4.8 | 8.0 | 0.00 | 0.00 | 0.00 | 53 | 1023.5 |
| 20260831161923 | 23 | 163 | 4.8 | 8.0 | 0.00 | 0.00 | 0.00 | 53 | 1023.5 |
| 20260831160923 | 23 | 157 | 0.0 | 0.0 | 0.00 | 0.00 | 0.00 | 54 | 1023.5 |
| 20260831155924 | 22 | 225 | 0.0 | 0.0 | 0.00 | 0.00 | 0.00 | 54 | 1023.9 |
| 20260831155022 | 22 | 157 | 0.0 | 1.6 | 0.00 | 0.00 | 0.00 | 55 | 1023.8 |
| 20260831154024 | 22 | 157 | 0.0 | 0.0 | 0.00 | 0.00 | 0.00 | 55 | 1023.8 |
| 20260831153021 | 23 | 157 | 3.2 | 4.8 | 0.00 | 0.00 | 0.00 | 56 | 1023.8 |
| 20260831152923 | 22 | 157 | 0.0 | 0.0 | 0.00 | 0.00 | 0.00 | 55 | 1023.7 |
| 20260831151941 | 22 | 157 | 0.0 | 0.0 | 0.00 | 0.00 | 0.00 | 57 | 1023.7 |
| 20260831151024 | 22 | 247 | 1.6 | 4.8 | 0.00 | 0.00 | 0.00 | 57 | 1023.8 |
| 20260831145925 | 22 | 231 | 1.6 | 6.4 | 0.00 | 0.00 | 0.00 | 59 | 1023.8 |
| 20260831144023 | 21 | 157 | 0.0 | 0.0 | 0.00 | 0.00 | 0.00 | 61 | 1024.1 |
| 20260831143025 | 21 | 157 | 0.0 | 0.0 | 0.00 | 0.00 | 0.00 | 65 | 1024.3 |
| 20260831142024 | 20 | 247 | 3.2 | 4.8 | 0.00 | 0.00 | 0.00 | 67 | 1024.3 |
| 20260831141924 | 20 | 238 | 1.6 | 4.8 | 0.00 | 0.00 | 0.00 | 68 | 1024.3 |
| 20260831141824 | 20 | 190 | 3.2 | 4.8 | 0.00 | 0.00 | 0.00 | 69 | 1024.3 |
| 20260831140821 | 19 | 337 | 0.0 | 0.0 | 0.00 | 0.00 | 0.00 | 73 | 1024.4 |
| 20260831140738 | 19 | 320 | 0.0 | 0.0 | 0.00 | 0.00 | 0.00 | 74 | 1024.5 |
| 20260831135723 | 18 | 225 | 0.0 | 0.0 | 0.00 | 0.00 | 0.00 | 78 | 1024.4 |
| 20260831135624 | 18 | 225 | 0.0 | 1.6 | 0.00 | 0.00 | 0.00 | 79 | 1024.5 |
| 20260831134623 | 17 | 157 | 3.2 | 3.2 | 0.00 | 0.00 | 0.00 | 82 | 1024.6 |
| 20260831134522 | 17 | 157 | 4.8 | 4.8 | 0.00 | 0.00 | 0.00 | 83 | 1024.6 |
| 20260831132621 | 16 | 157 | 3.2 | 4.8 | 0.00 | 0.00 | 0.00 | 87 | 1024.5 |
| 20260831131622 | 16 | 157 | 0.0 | 1.6 | 0.00 | 0.00 | 0.00 | 88 | 1024.5 |
| 20260831130623 | 16 | 157 | 1.6 | 4.8 | 0.00 | 0.00 | 0.00 | 89 | 1024.5 |
| 20260831125722 | 16 | 157 | 3.2 | 4.8 | 0.00 | 0.00 | 0.00 | 89 | 1024.6 |
| 20260831124721 | 15 | 206 | 1.6 | 3.2 | 0.00 | 0.00 | 0.00 | 89 | 1024.6 |
| 20260831123722 | 15 | 247 | 0.0 | 0.0 | 0.00 | 0.00 | 0.00 | 87 | 1024.5 |
| 20260831121721 | 13 | 135 | 3.2 | 4.8 | 0.00 | 0.00 | 0.00 | 86 | 1024.5 |
| 20260831120722 | 13 | 135 | 0.0 | 1.6 | 0.00 | 0.00 | 0.00 | 85 | 1024.4 |
| 20260831120623 | 13 | 135 | 1.6 | 3.2 | 0.00 | 0.00 | 0.00 | 85 | 1024.4 |
| 20260831120524 | 13 | 135 | 3.2 | 3.2 | 0.00 | 0.00 | 0.00 | 85 | 1024.4 |
| 20260831115622 | 12 | 135 | 0.0 | 0.0 | 0.00 | 0.00 | 0.00 | 85 | 1024.2 |
| 20260831115524 | 12 | 135 | 0.0 | 0.0 | 0.00 | 0.00 | 0.00 | 85 | 1024.2 |
| 20260831114440 | 12 | 135 | 0.0 | 0.0 | 0.00 | 0.00 | 0.00 | 85 | 1024.2 |
| 20260831113522 | 12 | 135 | 1.6 | 3.2 | 0.00 | 0.00 | 0.00 | 85 | 1024.2 |
| 20260831112523 | 11 | 315 | 0.0 | 0.0 | 0.00 | 0.00 | 0.00 | 86 | 1024.0 |
| 20260831111621 | 11 | 315 | 0.0 | 0.0 | 0.00 | 0.00 | 0.00 | 86 | 1023.9 |
| 20260831111523 | 11 | 315 | 0.0 | 0.0 | 0.00 | 0.00 | 0.00 | 86 | 1023.9 |
| 20260831110622 | 11 | 315 | 0.0 | 0.0 | 0.00 | 0.00 | 0.00 | 87 | 1023.9 |
| 20260831105623 | 11 | 315 | 0.0 | 0.0 | 0.00 | 0.00 | 0.00 | 87 | 1023.9 |